Location: Newark
(35.7219°N, 0.3536°E)
Time: 06:22:22
(UTC+00:00)

ISS - Pass Details

Date: 29 July 2019
Orbit: 410 x 420 km, 51.6° (Epoch: 21 August)

Event Time Altitude Azimuth Distance (km) Brightness Sun altitude
Rises 21:27:17 0° 325° (NW) 2,368 1.5 -24.0°
Reaches altitude 10° 21:30:12 10° 353° (N) 1,499 -0.2 -24.4°
Enters shadow 21:32:01 14° 25° (NNE) 1,287 -1.0 -24.7°
